(155996) = 2001 RD11

Discovered at Desert Eagle on 2001-09-10 by W. K. Y. Yeung.

Orbit

Orbit type: Main Belt

Note: WebGL enabled browser required.

epoch2024-03-31.0
epoch JD2460400.5
perihelion date2022-11-13.70886
perihelion JD2459897.20886
argument of perihelion (°)164.14395
ascending node (°)186.47886
inclination (°)3.32501
eccentricity0.2038300
perihelion distance (AU)1.8497894
Tisserand w.r.t. Jupiter3.5
ΔV w.r.t. Earth (km/sec)8.5
semimajor axis (AU)2.3233598
mean anomaly (°)140.07106
mean daily motion (°/day)0.27831020
aphelion distance (AU)2.797
period (years)3.54
P-vector [x]0.98658523
P-vector [y]-0.15537235
P-vector [z]-0.05009010
Q-vector [x]0.16311577
Q-vector [y]0.92593882
Q-vector [z]0.34063258
absolute magnitude16.61
phase slope0.15
uncertainty0
referenceMPEC 2024-D64
observations used760
oppositions16
arc length (days)8711
first opposition used2000
last opposition used2024
residual rms (arc-secs)0.64
perturbers coarse indicatorM-v
perturbers precise indicator003Ek
first observation date used2000-04-13.0
last observation date used2024-02-18.0
computer nameMPCLINUX
JD of orbit computation2456789.345150
perihelion JD uncertainty (days)6.5136E-05
argument of perihelion uncertainty (°)7.1105E-05
ascending node uncertainty (°)6.9609E-05
inclination uncertainty (°)7.8214E-06
eccentricity uncertainty 7.1660E-08
perihelion distance uncertainty (AU)1.7142E-07
Minimum Orbit Intersection Distances (in AU)
for orbit epoch: 2460400.5, reference: E2024-D64
Mercury1.47231
Venus1.12601
Earth0.84414
Mars0.46451
Jupiter2.62536
Saturn6.50524
Uranus15.6458
Neptune27.6241

Observations

773 total observations over interval: 2000 04 13.20338 – 2024 02 18.328321
These data are available for download (format description).

Date (UT) J2000 RA J2000 Dec Magn Location Ref
2000 04 13.20338 13 20 37.62 -06 59 17.4 20.1 V 691 – Steward Observatory, Kitt Peak-Spacewatch MPS 157601
2000 04 13.22433 13 20 36.42 -06 59 07.9 20.3 V 691 – Steward Observatory, Kitt Peak-Spacewatch MPS 157601
2000 04 13.24543 13 20 35.18 -06 58 59.4 20.6 V 691 – Steward Observatory, Kitt Peak-Spacewatch MPS 157601
2001 08 16.33970 01 14 14.58 +09 15 47.2 19.0   704 – Lincoln Laboratory ETS, New Mexico MPS 37950
2001 08 16.36373 01 14 15.38 +09 15 49.9 20.2   704 – Lincoln Laboratory ETS, New Mexico MPS 37950
2001 08 16.37578 01 14 15.80 +09 15 51.2 19.6   704 – Lincoln Laboratory ETS, New Mexico MPS 37950
2001 08 27.40845 01 18 58.80 +09 19 12.7 18.8 R 699 – Lowell Observatory-LONEOS MPS 43760
2001 08 27.42735 01 18 59.05 +09 19 11.8   699 – Lowell Observatory-LONEOS MPS 43760
2001 08 27.44629 01 18 59.25 +09 19 10.1   699 – Lowell Observatory-LONEOS MPS 43760
2001 08 27.46530 01 18 59.42 +09 19 08.9   699 – Lowell Observatory-LONEOS MPS 43760
2001 08 30.34354 01 19 32.89 +09 15 04.7 19.7   644 – Palomar Mountain/NEAT MPS 43760
2001 08 30.36531 01 19 32.99 +09 15 02.0 19.1   644 – Palomar Mountain/NEAT MPS 43760
2001 08 30.38851 01 19 33.11 +09 14 59.9 19.1   644 – Palomar Mountain/NEAT MPS 43760
2001 09 10.34757 01 18 59.40 +08 40 32.8 18.8 V 333 – Desert Eagle Observatory MPS 34972
2001 09 10.38843 01 18 58.64 +08 40 21.4 19.4 V 333 – Desert Eagle Observatory MPS 34972
2001 09 11.35769 01 18 43.68 +08 35 53.8 18.4 V 333 – Desert Eagle Observatory MPS 34972
2001 09 11.39361 01 18 43.00 +08 35 44.4 18.8 R 699 – Lowell Observatory-LONEOS MPS 37950
2001 09 11.39889 01 18 42.91 +08 35 42.6 19.4 V 333 – Desert Eagle Observatory MPS 34972
2001 09 11.41410 01 18 42.54 +08 35 38.3   699 – Lowell Observatory-LONEOS MPS 37950
2001 09 11.43464 01 18 42.18 +08 35 32.3   699 – Lowell Observatory-LONEOS MPS 37950
2001 09 11.45519 01 18 41.73 +08 35 26.9   699 – Lowell Observatory-LONEOS MPS 37950
2001 09 15.31944 01 17 23.07 +08 15 25.1 18.0   644 – Palomar Mountain/NEAT MPS 36213
2001 09 15.34026 01 17 22.51 +08 15 17.8 18.0   644 – Palomar Mountain/NEAT MPS 36213
2001 09 15.36163 01 17 21.93 +08 15 10.8 19.1   644 – Palomar Mountain/NEAT MPS 36213
2001 09 16.38297 01 16 56.01 +08 09 18.9 19.8   704 – Lincoln Laboratory ETS, New Mexico MPS 36213
2001 09 16.39731 01 16 55.62 +08 09 13.9 19.9   704 – Lincoln Laboratory ETS, New Mexico MPS 36213
2001 09 16.41172 01 16 55.27 +08 09 08.0 20.1   704 – Lincoln Laboratory ETS, New Mexico MPS 36213
2001 09 16.42619 01 16 54.80 +08 09 02.5 19.7   704 – Lincoln Laboratory ETS, New Mexico MPS 36213
2001 09 20.32598 01 14 59.88 +07 44 42.7 17.9   704 – Lincoln Laboratory ETS, New Mexico MPS 36213
2001 09 20.34408 01 14 59.22 +07 44 35.5 18.7   704 – Lincoln Laboratory ETS, New Mexico MPS 36213
2001 09 20.35827 01 14 58.72 +07 44 30.0 19.1   704 – Lincoln Laboratory ETS, New Mexico MPS 36213
2001 09 20.37246 01 14 58.18 +07 44 24.3 18.6   704 – Lincoln Laboratory ETS, New Mexico MPS 36213
2001 09 20.38666 01 14 57.68 +07 44 18.5 18.8   704 – Lincoln Laboratory ETS, New Mexico MPS 36213
2001 09 20.39449 01 14 57.48 +07 44 15.2 18.8 V 691 – Steward Observatory, Kitt Peak-Spacewatch MPS 36213
2001 09 20.41611 01 14 56.69 +07 44 06.6 18.5 V 691 – Steward Observatory, Kitt Peak-Spacewatch MPS 36213
2001 09 20.43709 01 14 55.94 +07 43 58.1 18.5 V 691 – Steward Observatory, Kitt Peak-Spacewatch MPS 36213
2001 09 23.33979 01 13 14.35 +07 23 59.1 17.5   704 – Lincoln Laboratory ETS, New Mexico MPS 43760
2001 09 23.35399 01 13 13.76 +07 23 53.2 17.5   704 – Lincoln Laboratory ETS, New Mexico MPS 43760
2001 09 23.36821 01 13 13.18 +07 23 47.0 17.4   704 – Lincoln Laboratory ETS, New Mexico MPS 43760
2001 09 23.38243 01 13 12.61 +07 23 41.1 17.8   704 – Lincoln Laboratory ETS, New Mexico MPS 43760
2001 09 23.39731 01 13 12.00 +07 23 34.6 17.9   704 – Lincoln Laboratory ETS, New Mexico MPS 43760
2001 09 24.34338 01 12 36.47 +07 16 46.8 18.4   704 – Lincoln Laboratory ETS, New Mexico MPS 43760
2001 09 24.35945 01 12 35.78 +07 16 39.9 18.5   704 – Lincoln Laboratory ETS, New Mexico MPS 43760
2001 09 24.37553 01 12 35.11 +07 16 32.9 18.3   704 – Lincoln Laboratory ETS, New Mexico MPS 43760
2001 09 24.39040 01 12 34.45 +07 16 26.4 18.2   704 – Lincoln Laboratory ETS, New Mexico MPS 43760
2001 09 24.40554 01 12 33.84 +07 16 20.3 18.8   704 – Lincoln Laboratory ETS, New Mexico MPS 43760
2001 09 26.31715 01 11 18.38 +07 02 10.3 18.0 V 333 – Desert Eagle Observatory MPS 36213
2001 09 26.33177 01 11 17.73 +07 02 03.5 18.4 V 333 – Desert Eagle Observatory MPS 36213
2001 09 26.33337 01 11 17.61 +07 02 03.5 18.2   704 – Lincoln Laboratory ETS, New Mexico MPS 49413
2001 09 26.34633 01 11 17.08 +07 01 56.6 18.8 V 333 – Desert Eagle Observatory MPS 36213
2001 09 26.34812 01 11 16.94 +07 01 56.6 18.5   704 – Lincoln Laboratory ETS, New Mexico MPS 49413
2001 09 26.36270 01 11 16.31 +07 01 50.8 19.1   704 – Lincoln Laboratory ETS, New Mexico MPS 49413
2001 09 26.37728 01 11 15.65 +07 01 45.0 19.9   704 – Lincoln Laboratory ETS, New Mexico MPS 49413
2001 09 26.39188 01 11 15.02 +07 01 37.1 18.2   704 – Lincoln Laboratory ETS, New Mexico MPS 49413
2001 10 06.20983 01 03 55.62 +05 43 38.9 18.3   704 – Lincoln Laboratory ETS, New Mexico MPS 37950
2001 10 06.22533 01 03 54.94 +05 43 31.0 18.1   704 – Lincoln Laboratory ETS, New Mexico MPS 37950
2001 10 06.24082 01 03 54.24 +05 43 22.5 18.5   704 – Lincoln Laboratory ETS, New Mexico MPS 37950
2001 10 12.27297 00 59 08.52 +04 54 33.3 17.8 R 699 – Lowell Observatory-LONEOS MPS 37950
2001 10 12.29636 00 59 07.32 +04 54 22.4   699 – Lowell Observatory-LONEOS MPS 37950
2001 10 12.31984 00 59 06.15 +04 54 10.6   699 – Lowell Observatory-LONEOS MPS 37950
2001 10 12.34336 00 59 04.97 +04 53 59.3   699 – Lowell Observatory-LONEOS MPS 37950
2001 10 13.24553 00 58 23.36 +04 46 51.8 17.9   704 – Lincoln Laboratory ETS, New Mexico MPS 37950
2001 10 13.26117 00 58 22.61 +04 46 44.7 17.9   704 – Lincoln Laboratory ETS, New Mexico MPS 37950
2001 10 13.27691 00 58 21.83 +04 46 37.4 18.2   704 – Lincoln Laboratory ETS, New Mexico MPS 37950
2001 10 13.29257 00 58 21.07 +04 46 29.9 17.9   704 – Lincoln Laboratory ETS, New Mexico MPS 37950
2001 10 13.30846 00 58 20.25 +04 46 22.7 18.2   704 – Lincoln Laboratory ETS, New Mexico MPS 37950
2001 10 14.19523 00 57 39.66 +04 39 24.1 17.7 R 699 – Lowell Observatory-LONEOS MPS 39307
2001 10 14.19996 00 57 39.44 +04 39 21.5   699 – Lowell Observatory-LONEOS MPS 39307
2001 10 14.20465 00 57 39.22 +04 39 20.1   699 – Lowell Observatory-LONEOS MPS 39307
2001 10 14.20932 00 57 38.96 +04 39 17.7   699 – Lowell Observatory-LONEOS MPS 39307
2001 10 16.24782 00 56 06.75 +04 23 38.2 18.4   704 – Lincoln Laboratory ETS, New Mexico MPS 37950
2001 10 16.26353 00 56 05.96 +04 23 30.7 19.0   704 – Lincoln Laboratory ETS, New Mexico MPS 37950
2001 10 16.27926 00 56 05.22 +04 23 23.7 19.0   704 – Lincoln Laboratory ETS, New Mexico MPS 37950
2001 10 16.29498 00 56 04.47 +04 23 16.0 18.9   704 – Lincoln Laboratory ETS, New Mexico MPS 37950
2001 10 16.31073 00 56 03.74 +04 23 08.5 18.4   704 – Lincoln Laboratory ETS, New Mexico MPS 37950
2001 10 20.26337 00 53 15.36 +03 54 20.5 17.7   704 – Lincoln Laboratory ETS, New Mexico MPS 40371
2001 10 20.27981 00 53 14.64 +03 54 14.4 17.6   704 – Lincoln Laboratory ETS, New Mexico MPS 40371
2001 10 20.29623 00 53 13.93 +03 54 06.8 17.5   704 – Lincoln Laboratory ETS, New Mexico MPS 40371
2001 10 20.31266 00 53 13.21 +03 53 59.5 17.0   704 – Lincoln Laboratory ETS, New Mexico MPS 40371
2001 10 20.32910 00 53 12.51 +03 53 52.5 17.9   704 – Lincoln Laboratory ETS, New Mexico MPS 40371
2001 10 23.25700 00 51 19.32 +03 34 13.8 18.4   704 – Lincoln Laboratory ETS, New Mexico MPS 40371
2001 10 23.27339 00 51 18.63 +03 34 07.2 18.6   704 – Lincoln Laboratory ETS, New Mexico MPS 40371
2001 10 23.28980 00 51 18.00 +03 34 01.1 18.9   704 – Lincoln Laboratory ETS, New Mexico MPS 40371
2001 10 23.30621 00 51 17.31 +03 33 55.0 18.7   704 – Lincoln Laboratory ETS, New Mexico MPS 40371
2001 10 23.32263 00 51 16.71 +03 33 49.1 18.8   704 – Lincoln Laboratory ETS, New Mexico MPS 40371
